Location: Fort Worth, Tx
(32.7431°N, 97.3695°W)
Time: 13:48:36
(UTC-05:00)

Courier 1B Rocket - Visible Passes

Search period start: 30 January 2023 00:00
Search period end: 09 February 2023 00:00
Orbit: 920 x 1202 km, 28.3° (Epoch: 29 January)

Date Brightness Start Highest point End Pass type
(mag) Time Alt. Az. Time Alt. Az. Time Alt. Az.
30 Jan 5.4 19:54:26 10° WSW 20:00:26 50° S 20:05:17 17° E visible
30 Jan 5.9 21:47:22 10° W 21:51:39 42° WSW 21:51:39 42° WSW visible
31 Jan 5.2 20:46:26 10° WSW 20:52:35 59° S 20:54:25 43° SE visible
31 Jan 7.4 22:39:39 10° W 22:40:47 16° W 22:40:47 16° W visible
01 Feb 5.3 19:45:32 10° WSW 19:51:37 56° S 19:57:12 13° E visible
01 Feb 5.6 21:38:39 10° W 21:43:34 47° SW 21:43:34 47° SW visible
02 Feb 5.2 20:37:40 10° W 20:43:47 57° S 20:46:23 34° ESE visible
02 Feb 7.2 22:31:04 10° W 22:32:44 18° WSW 22:32:44 18° WSW visible
03 Feb 5.3 19:36:42 10° WSW 19:42:49 58° S 19:49:01 10° ESE visible
03 Feb 5.6 21:29:59 10° W 21:35:35 45° SSW 21:35:35 45° SSW visible
04 Feb 5.4 20:28:57 10° W 20:34:58 52° S 20:38:27 25° SE visible
04 Feb 7.0 22:22:38 10° WSW 22:24:50 19° WSW 22:24:50 19° WSW visible
05 Feb 5.4 19:27:54 10° W 19:34:01 57° S 19:40:09 10° ESE visible
05 Feb 5.9 21:21:24 10° W 21:27:02 36° SSW 21:27:46 35° S visible
06 Feb 5.7 20:20:15 10° W 20:26:08 44° SSW 20:30:44 16° SE visible
06 Feb 7.0 22:14:30 10° WSW 22:17:07 18° SW 22:17:07 18° SW visible
07 Feb 6.4 21:12:58 10° WSW 21:18:07 27° SSW 21:20:10 23° S visible
08 Feb 6.1 20:11:39 10° W 20:17:15 35° SSW 20:22:53 10° SE visible
08 Feb 7.2 22:07:04 10° WSW 22:09:41 13° SSW 22:09:41 13° SSW visible
